This demonstration page uses our WeatherBlox Daily Observations layout. Learn more.

Left ArrowRight Arrow

Hourly Observations for July 21, 2017

Temp ( °F °C ) Dew Point ( °F °C ) Humidity (%) Winds ( mph kmh ) Pressure ( in mb ) Visibility ( mi km ) Precip ( " mm )
12:15 am 00:15 Clear 80 26.5 74 23.6 84 84 SE 7 11 29.74 1007 10 16 0.00 0.00
12:35 am 00:35 Clear 79 26.3 73 23 82 82 SSE 8 13 29.74 1007 10 16 0.00 0.00
12:55 am 00:55 Clear 78 25.8 70 21 75 75 SSE 8 13 29.74 1007 10 16 0.00 0.00
1:15 am 01:15 Clear 78 25.5 66 18.9 67 67 SSE 9 15 29.77 1008 10 16 0.00 0.00
1:35 am 01:35 Clear 78 25.6 64 17.6 61 61 SSE 12 19 29.71 1006 10 16 0.00 0.00
1:55 am 01:55 Clear 78 25.7 63 17 59 59 SSE 10 17 29.71 1006 10 16 0.00 0.00
2:15 am 02:15 Clear 78 25.5 63 17 59 59 S 8 13 29.71 1006 10 16 0.00 0.00
2:35 am 02:35 Clear 77 25.1 62 16.7 60 60 S 9 15 29.74 1007 10 16 0.00 0.00
2:55 am 02:55 Clear 78 25.4 62 16.5 58 58 S 9 15 29.71 1006 10 16 0.00 0.00
3:15 am 03:15 Clear 78 25.6 61 16.2 56 56 S 13 20 29.71 1006 10 16 0.00 0.00
3:35 am 03:35 Clear 78 25.5 61 16 56 56 S 13 20 29.68 1005 10 16 0.00 0.00
3:55 am 03:55 Clear 78 25.5 60 15.7 55 55 SSW 8 13 29.71 1006 10 16 0.00 0.00
4:15 am 04:15 Clear 77 24.8 61 15.9 58 58 SSW 6 9 29.74 1007 10 16 0.00 0.00
4:35 am 04:35 Clear 75 24.1 61 16 61 61 SSW 5 7 29.74 1007 10 16 0.00 0.00
4:55 am 04:55 Clear 74 23.2 62 16.4 66 66 SSE 7 11 29.74 1007 10 16 0.00 0.00
5:15 am 05:15 Clear 74 23.6 61 16 63 63 SSE 8 13 29.74 1007 10 16 0.00 0.00
5:35 am 05:35 Clear 74 23.5 61 16 63 63 S 10 17 29.71 1006 10 16 0.00 0.00
5:55 am 05:55 Clear 74 23.2 61 16 64 64 S 9 15 29.71 1006 10 16 0.00 0.00
6:15 am 06:15 Clear 73 22.7 61 16 66 66 S 7 11 29.71 1006 10 16 0.00 0.00
6:35 am 06:35 Sunny 73 22.7 61 16 66 66 S 6 9 29.74 1007 10 16 0.00 0.00
6:55 am 06:55 Sunny 73 22.8 61 16.2 66 66 SSW 7 11 29.74 1007 10 16 0.00 0.00
7:15 am 07:15 Sunny 74 23.3 61 16.3 65 65 S 6 9 29.74 1007 10 16 0.00 0.00
7:35 am 07:35 Sunny 74 23.3 62 16.5 66 66 SSE 6 9 29.74 1007 10 16 0.00 0.00
7:55 am 07:55 Sunny 75 24.1 63 17 65 65 SSW 6 9 29.74 1007 10 16 0.00 0.00
8:15 am 08:15 Sunny 77 25 64 18 65 65 Calm 29.74 1007 10 16 0.00 0.00
8:35 am 08:35 Sunny 78 25.5 65 18.2 64 64 W 3 6 29.77 1008 10 16 0.00 0.00
8:55 am 08:55 Sunny 78 25.7 63 17.4 60 60 Calm 29.71 1006 10 16 0.00 0.00
9:15 am 09:15 Sunny 80 26.5 65 18.1 60 60 WSW 3 6 29.74 1007 10 16 0.00 0.00
9:35 am 09:35 Sunny 80 26.9 65 18.4 60 60 WSW 6 9 29.74 1007 10 16 0.00 0.00
9:55 am 09:55 Sunny 81 27.2 66 18.7 60 60 SW 5 7 29.74 1007 10 16 0.00 0.00
10:15 am 10:15 Sunny 82 27.6 66 19.1 60 60 Calm 29.74 1007 10 16 0.00 0.00
10:35 am 10:35 Sunny 83 28.2 68 19.8 60 60 Calm 29.71 1006 10 16 0.00 0.00
10:55 am 10:55 Sunny 84 28.7 69 20.3 60 60 Calm 29.71 1006 10 16 0.00 0.00
11:15 am 11:15 Sunny 84 29 70 20.9 62 62 Calm 29.68 1005 10 16 0.00 0.00
11:35 am 11:35 Sunny 85 29.5 72 22.1 64 64 Calm 29.71 1006 10 16 0.00 0.00
11:55 am 11:55 Sunny 86 30.2 72 22.4 63 63 Calm 29.71 1006 10 16 0.00 0.00
12:15 pm 12:15 Sunny 87 30.6 73 22.6 62 62 Calm 29.71 1006 10 16 0.00 0.00
12:35 pm 12:35 Sunny 89 31.4 74 23.5 63 63 W 3 6 29.68 1005 10 16 0.00 0.00
12:55 pm 12:55 Sunny 89 31.9 75 23.9 63 63 Calm 29.68 1005 10 16 0.00 0.00
1:15 pm 13:15 Sunny 92 33.1 75 24.1 59 59 Calm 29.65 1004 10 16 0.00 0.00
1:35 pm 13:35 Sunny 92 33.6 73 22.9 53 53 Calm 29.65 1004 10 16 0.00 0.00
1:55 pm 13:55 Sunny 94 34.2 77 24.8 58 58 SW 6 9 29.65 1004 10 16 0.00 0.00
2:15 pm 14:15 Sunny 94 34.3 76 24.3 56 56 Calm 29.65 1004 10 16 0.00 0.00
2:35 pm 14:35 Sunny 94 34.7 74 23.2 51 51 SSW 5 7 29.65 1004 10 16 0.00 0.00
2:55 pm 14:55 Sunny 95 35 74 23.2 50 50 SSW 6 9 29.62 1003 10 16 0.00 0.00
3:15 pm 15:15 Sunny 96 35.3 74 23.3 50 50 Calm 29.62 1003 10 16 0.00 0.00
3:35 pm 15:35 Sunny 96 35.4 76 24.3 53 53 Calm 29.62 1003 10 16 0.00 0.00
3:55 pm 15:55 Sunny 97 35.9 74 23.2 48 48 Calm 29.62 1003 10 16 0.00 0.00
4:15 pm 16:15 Sunny 97 36.1 76 24.3 51 51 SSE 3 6 29.62 1003 10 16 0.00 0.00
4:35 pm 16:35 Sunny 95 35.1 77 25 56 56 SSE 7 11 29.62 1003 10 16 0.00 0.00
4:55 pm 16:55 Sunny 95 35.2 77 25 55 55 SSE 7 11 29.62 1003 10 16 0.00 0.00
5:15 pm 17:15 Sunny 95 35 77 25 56 56 SE 9 15 29.62 1003 10 16 0.00 0.00
5:35 pm 17:35 Sunny 96 35.5 78 25.4 56 56 SSE 7 11 29.59 1002 10 16 0.00 0.00
5:55 pm 17:55 Sunny 96 35.6 76 24.7 53 53 SE 6 9 29.59 1002 10 16 0.00 0.00
6:15 pm 18:15 Sunny 96 35.8 75 23.8 50 50 SE 6 9 29.59 1002 10 16 0.00 0.00
6:35 pm 18:35 Sunny 96 35.6 75 24.1 51 51 ESE 3 6 29.59 1002 10 16 0.00 0.00
6:55 pm 18:55 Sunny 96 35.3 75 24 52 52 SSE 6 9 29.59 1002 10 16 0.00 0.00
7:15 pm 19:15 Sunny 92 33.2 77 25.2 63 63 S 7 11 29.59 1002 10 16 0.00 0.00
7:35 pm 19:35 Sunny 89 31.7 78 25.6 70 70 S 7 11 29.59 1002 10 16 0.00 0.00
7:55 pm 19:55 Sunny 90 32.1 78 25.6 69 69 S 6 9 29.56 1001 10 16 0.00 0.00
8:15 pm 20:15 Partly Cloudy 91 32.5 78 25.8 68 68 Calm 29.59 1002 10 16 0.00 0.00
8:35 pm 20:35 Mostly Cloudy 90 32 79 26.3 72 72 Calm 29.62 1003 10 16 0.00 0.00
8:55 pm 20:55 Mostly Cloudy 87 30.5 80 26.4 79 79 NNE 5 7 29.62 1003 10 16 0.00 0.00
9:15 pm 21:15 Partly Cloudy 86 30.1 79 26.1 79 79 ENE 3 6 29.65 1004 10 16 0.00 0.00
9:35 pm 21:35 Partly Cloudy 85 29.4 78 25.8 81 81 Calm 29.65 1004 10 16 0.00 0.00
9:55 pm 21:55 Clear with Nearby Thunderstorms 82 27.9 78 25.7 88 88 Calm 29.68 1005 10 16 0.00 0.00
10:15 pm 22:15 Clear 82 27.5 77 25.2 87 87 NNW 3 6 29.68 1005 10 16 0.00 0.00
10:35 pm 22:35 Clear 81 27.1 77 25 88 88 Calm 29.68 1005 10 16 0.00 0.00
10:55 pm 22:55 Clear 81 27 76 24.7 87 87 Calm 29.68 1005 10 16 0.00 0.00
11:15 pm 23:15 Clear 81 27.1 77 25 88 88 Calm 29.71 1006 10 16 0.00 0.00
11:35 pm 23:35 Clear with Nearby Thunderstorms 82 27.5 76 24.6 84 84 SSE 9 15 29.74 1007 10 16 0.00 0.00
11:55 pm 23:55 Clear with Nearby Thunderstorms 83 28.4 72 22.4 70 70 SSE 9 15 29.71 1006 10 16 0.00 0.00

Powered by AerisWeather